sat.trackr.live / text

‹ back to catalog

RADIO ROSTO (RS15)

NORAD 23439 · 1994-085A

PAYLOAD ACTIVE UNKNOWN

§ Identity

Operator
Country
CIS
Launch date
1994-12-26
Launch site
TYMSC
Launch vehicle
Mass (kg)
RCS (m²)
0.62

Purposes: comms

External: N2YO · Heavens-Above · Gunter

§ Orbital elements

Epoch: 2026-05-24T23:14:06.540000Z

Period
127.71 min
Inclination
64.8188°
Eccentricity
0.0155281
Mean motion
11.27583628 rev/d
Perigee alt
1,891.9 km
Apogee alt
2,152.8 km
Semi-major
8,400.5 km
B*
1.4436e-4
RAAN
340.7693°
Arg perigee
8.1520°
Mean anomaly
352.1875°
Rev number
29,328

§ Raw data

RADIO ROSTO (RS15)1 23439U 94085A   26144.96813125 -.00000037  00000+0  14436-3 0  99902 23439  64.8188 340.7693 0155281   8.1520 352.1875 11.27583628293286

JSON: /api/v1/satellites/23439 · /tle

For live sub-satellite position, see the globe view (requires WebGL).

§ Visibility from observer

Set your observer location to see the next 7 days of passes ≥ 10°. The values pass through the URL so the page stays shareable.

No JS? Fill the form by hand. The geolocation button needs JavaScript.

§ Radio — SatNOGS DB

ModeDescriptionDownlinkUplink
CW Mode T TLM 1 29.353 MHz
CW Mode T TLM 2 (inactive) 29.399 MHz
USB V/T (Mode A) Transponder (inactive) 29.354 MHz–29.394 MHz 145.858 MHz–145.898 MHz

3 transmitters · refreshed weekly from db.satnogs.org